Regional Weather Roundup
Issued by NWS Jackson, KY

Home | Current Version | Previous Version | Text Only | Print | Product List | Glossary On
Versions: 1 2 3 4 5 6 7 8 9 10 11 12 13 14 15 16 17 18 19 20 21 22 23 24 25 26 27 28
000
ASUS43 KJKL 221210
RWRJKL

EAST KENTUCKY HOURLY WEATHER ROUNDUP
NATIONAL WEATHER SERVICE JACKSON KY
800 AM EDT FRI SEP 22 2017

NOTE: "FAIR" INDICATES FEW OR NO CLOUDS BELOW 12,000 FEET WITH
NO SIGNIFICANT WEATHER AND/OR OBSTRUCTIONS TO VISIBILITY.

* THESE REPORTS ARE NOT UNDER NWS QUALITY CONTROL AND MAY NOT
  REPORT WEATHER SUCH AS PRECIPITATION AND FOG.

KYZ079-080-083-085-087-088-110-112-115-119-120-221300
...EASTERN KENTUCKY...

CITY           SKY/WX    TMP DP  RH WIND       PRES   REMARKS
JACKSON        CLEAR     67  65  93 CALM      30.14R FOG
6HR MIN TEMP:  66; 6HR MAX TEMP:  70;

LONDON         CLEAR     64  62  93 CALM      30.13R
6HR MIN TEMP:  62; 6HR MAX TEMP:  66;

SOMERSET*      CLEAR     61  61 100 CALM      30.13R FOG
MONTICELLO*    FOG       60  60 100 N12       30.14R VSB 1/4
6HR MIN TEMP:  59; 6HR MAX TEMP:  61;

WILLIAMSBURG*  CLOUDY    63  63 100 CALM      30.12S VSB<1/4
MIDDLESBORO*   CLOUDY    63  63 100 CALM      30.14S FOG
6HR MIN TEMP:  63; 6HR MAX TEMP:  64;

HARLAN APT*    CLOUDY    63  61  94 CALM      30.16R VSB 1/2
PIKE CO APT*   FOG       63  63 100 CALM      30.14S VSB 1/4
BIG SANDY APT* FOG       63  63 100 CALM      30.14S VSB<1/4
6HR MIN TEMP:  62; 6HR MAX TEMP:  68;

MOREHEAD APT*  FOG       64  63  94 CALM      30.14R VSB 3/4
$$

KYZ035-036-041-042-044-050-067-078-099-221300
...CENTRAL KENTUCKY...

CITY           SKY/WX    TMP DP  RH WIND       PRES   REMARKS
MT STERLING*   CLEAR     63  61  94 CALM      30.15R FOG
FLEMING/MASON* MOCLDY    64  64 100 CALM      30.14S FOG
DANVILLE*      CLEAR     61  61 100 CALM      30.14R
LEXINGTON      CLEAR     65  62  90 CALM      30.13R FOG
6HR MIN TEMP:  64; 6HR MAX TEMP:  70;

FRANKFORT      FOG       66  63  90 CALM      30.11R VSB 1/4
6HR MIN TEMP:  64; 6HR MAX TEMP:  69;

LOUISVILLE     PTCLDY    73  70  90 CALM      30.10R FOG
6HR MIN TEMP:  72; 6HR MAX TEMP:  76;

LEBANON*         N/A     64  64 100 CALM      30.12R FOG
GLASGOW*       PTCLDY   N/A N/A N/A CALM      30.10R FOG
BOWLING GREEN  FOG       67  67 100 CALM      30.09R VSB<1/4
6HR MIN TEMP:  65; 6HR MAX TEMP:  72;

$$

KYZ091>093-OHZ055-061-077-WVZ005-015-034-035-042-221300
...SOUTHERN OHIO/WEST VIRGINIA...

CITY           SKY/WX    TMP DP  RH WIND       PRES   REMARKS
COVINGTON      CLEAR     67  67 100 CALM      30.12R
COLUMBUS       PTCLDY    68  66  93 CALM      30.13R
DAYTON         MOCLDY    70  66  87 CALM      30.14R
WILMINGTON     CLEAR     65  65 100 CALM      30.13R FOG
HUNTINGTON     FOG       64  63  96 N3        30.12R VSB<1/4
CHARLESTON     FOG       62  61  96 CALM      30.14R VSB 1/4
PINEVILLE*     FOG       61  61  98 MISG      30.21S VSB 1/4
BECKLEY        CLEAR     59  57  93 CALM      30.19R FOG
BLUEFIELD      CLEAR     61  60  97 CALM      30.21S FOG
LOGAN CO APT*  FOG       63  63 100 CALM      30.15R VSB<1/4
$$

VAZ002-007-008-TNZ017-027-036-066-071-221300
...SOUTHWEST VIRGINIA/EAST TENNESSEE...

CITY           SKY/WX    TMP DP  RH WIND       PRES   REMARKS
WISE*          CLEAR     63  63 100 CALM      30.21S
JONESVILLE*      N/A     59  59 100 CALM      30.17R FOG
ABINGDON*      PTCLDY    64  64 100 E5        30.18R
BRISTOL        PTCLDY    60  59  96 CALM      30.15S
MORRISTOWN*    SUNNY     66  64  94 CALM      30.12R
SEVIERVILLE*   SUNNY     61  61 100 CALM      30.11R
KNOXVILLE      PTCLDY    65  62  90 CALM      30.10R
LAFOLLETTE*    FOG       61  61 100 CALM      30.16R VSB 3/4
OAK RIDGE      CLEAR     66  64  93 CALM      30.12R FOG
CROSSVILLE     CLEAR     62  60  93 CALM      30.15R FOG
NASHVILLE      CLEAR     67  66  97 CALM      30.08R FOG
$$

...KEY TO REMARKS...
VSB - VISIBILITY IN MILES
WCI - WIND CHILL INDEX
HX  - HEAT INDEX

$$




USA.gov is the U.S. government's official web portal to all federal, state and local government web resources and services.